FW6441 Weather Reports


time (UTC)temp
F
wind
direction
speed
knots
gust
knots
rain 1hr
in
rain 24hr
in
rain mn
in
humidity
%
barometer
mb
20260507044409 56 147 0.0 2.6 0.00 0.00 0.00 80 1008.5
20260507043408 56 150 0.9 5.2 0.00 0.00 0.00 80 1008.4
20260507042908 56 146 1.7 5.2 0.00 0.00 0.00 80 1008.4
20260507041909 57 142 1.7 4.3 0.00 0.00 0.00 81 1008.3
20260507041407 57 143 1.7 4.3 0.00 0.00 0.00 81 1008.3
20260507040908 57 156 1.7 4.3 0.00 0.00 0.00 81 1008.3
20260507040409 57 165 1.7 5.2 0.00 0.00 0.00 81 1008.3
20260507035907 57 164 2.6 5.2 0.00 0.00 0.00 82 1008.3
20260507035408 57 159 2.6 7.0 0.00 0.00 0.00 81 1008.2
20260507034908 57 154 2.6 7.0 0.00 0.00 0.00 82 1008.2
20260507034408 57 153 1.7 5.2 0.00 0.00 0.00 82 1008.3
20260507033907 57 157 1.7 5.2 0.00 0.00 0.00 81 1008.3
20260507033408 57 160 0.9 4.3 0.00 0.00 0.00 81 1008.4
20260507032908 57 155 0.9 4.3 0.00 0.00 0.00 81 1008.3
20260507032407 57 151 1.7 4.3 0.00 0.00 0.00 81 1008.3
20260507031908 57 152 1.7 4.3 0.00 0.00 0.00 82 1008.2
20260507031407 57 150 1.7 4.3 0.00 0.00 0.00 82 1008.2
20260507030409 57 160 3.5 7.8 0.00 0.00 0.00 81 1007.9
20260507025908 57 160 3.5 7.8 0.00 0.00 0.00 81 1007.9
20260507025408 57 158 3.5 7.0 0.00 0.00 0.00 81 1007.9
20260507024907 57 154 3.5 7.0 0.00 0.00 0.00 81 1008.0
20260507024408 57 154 2.6 7.0 0.00 0.00 0.00 81 1007.9
20260507023408 58 159 2.6 7.0 0.00 0.00 0.00 81 1007.9
20260507022908 58 161 2.6 6.1 0.00 0.00 0.00 81 1007.9
20260507022408 58 159 2.6 7.0 0.00 0.00 0.00 81 1007.9
20260507021908 58 159 3.5 7.0 0.00 0.00 0.00 81 1008.0
20260507021409 58 159 3.5 7.8 0.00 0.00 0.00 80 1007.9
20260507020907 58 160 3.5 7.8 0.00 0.00 0.00 80 1008.0
20260507020409 58 168 3.5 3.5 0.00 0.00 0.00 80 1008.1
20260507014909 58 157 4.3 9.6 0.00 0.00 0.00 80 1008.3
20260507014409 58 158 3.5 7.8 0.00 0.00 0.00 80 1008.3
20260507013909 58 157 4.3 7.8 0.00 0.00 0.00 80 1008.3
20260507013409 58 155 3.5 7.8 0.00 0.00 0.00 79 1008.3
20260507012410 58 157 4.3 7.8 0.00 0.00 0.00 79 1008.3
20260507011909 58 157 4.3 7.8 0.00 0.00 0.00 78 1008.4
20260507010409 58 160 3.5 7.8 0.00 0.00 0.00 77 1008.5
20260507005910 58 155 3.5 7.8 0.00 0.00 0.00 77 1008.6
20260507005410 58 160 3.5 7.8 0.00 0.00 0.00 77 1008.7
20260507004909 59 165 1.7 7.8 0.00 0.00 0.00 76 1008.9
20260507004409 59 166 1.7 4.3 0.00 0.00 0.00 76 1008.9
20260507003909 59 162 2.6 6.1 0.00 0.00 0.00 76 1008.7
20260507003409 59 156 2.6 7.8 0.00 0.00 0.00 76 1008.8
20260507002409 59 156 3.5 6.1 0.00 0.00 0.00 75 1008.9
20260507001409 59 173 1.7 5.2 0.00 0.00 0.00 74 1009.0
20260507000909 59 173 1.7 5.2 0.00 0.00 0.00 74 1009.0
20260506235909 60 165 2.6 5.2 0.00 0.00 0.00 74 1009.0
20260506235410 60 160 2.6 5.2 0.00 0.00 0.00 74 1009.2
20260506234910 60 164 3.5 7.0 0.00 0.00 0.00 74 1009.2
20260506234408 60 165 4.3 7.0 0.00 0.00 0.00 74 1009.2
20260506233909 60 166 3.5 7.0 0.00 0.00 0.00 74 1009.2
20260506233409 60 174 2.6 7.8 0.00 0.00 0.00 73 1009.2
20260506232909 60 175 1.7 7.8 0.00 0.00 0.00 72 1009.2
20260506232409 61 181 1.7 6.1 0.00 0.00 0.00 72 1009.2
20260506231410 61 190 1.7 7.0 0.00 0.00 0.00 71 1009.1
20260506230910 61 188 0.9 4.3 0.00 0.00 0.00 71 1009.1
20260506230409 61 188 1.7 4.3 0.00 0.00 0.00 71 1009.2
20260506225909 61 189 1.7 4.3 0.00 0.00 0.00 71 1009.1
20260506224909 62 183 1.7 6.1 0.00 0.00 0.00 71 1009.2
20260506224410 62 186 1.7 6.1 0.00 0.00 0.00 71 1009.1
20260506223909 62 182 1.7 7.0 0.00 0.00 0.00 71 1009.2
20260506223409 62 184 3.5 7.8 0.00 0.00 0.00 71 1009.2
20260506222909 62 185 3.5 7.8 0.00 0.00 0.00 70 1009.2
20260506222409 62 188 3.5 7.8 0.00 0.00 0.00 70 1009.3
20260506221910 62 186 2.6 7.8 0.00 0.00 0.00 70 1009.3
20260506221409 62 183 2.6 7.8 0.00 0.00 0.00 69 1009.2
20260506220909 63 185 3.5 7.8 0.00 0.00 0.00 68 1009.2
20260506215909 63 210 1.7 6.1 0.00 0.00 0.00 67 1009.2
20260506215409 63 207 2.6 7.0 0.00 0.00 0.00 67 1009.1
20260506213409 64 209 3.5 7.0 0.00 0.00 0.00 64 1009.2
20260506212910 64 202 3.5 8.7 0.00 0.00 0.00 63 1009.2
20260506212409 64 212 3.5 8.7 0.00 0.00 0.00 63 1009.1
20260506211910 64 222 3.5 7.8 0.00 0.00 0.00 62 1009.1
20260506211408 64 225 4.3 7.8 0.00 0.00 0.00 62 1009.1
20260506210409 64 226 3.5 7.0 0.00 0.00 0.00 60 1008.9
20260506205910 65 226 3.5 7.0 0.00 0.00 0.00 59 1008.8
20260506205408 65 214 2.6 6.1 0.00 0.00 0.00 59 1008.6
20260506204909 65 216 2.6 6.1 0.00 0.00 0.00 59 1008.7
20260506204409 65 227 3.5 7.0 0.00 0.00 0.00 58 1008.7
20260506203909 65 225 3.5 7.0 0.00 0.00 0.00 58 1008.6
20260506203409 65 228 3.5 6.1 0.00 0.00 0.00 57 1008.6
20260506202409 66 233 4.3 8.7 0.00 0.00 0.00 56 1008.3
20260506201409 66 229 5.2 9.6 0.00 0.00 0.00 55 1008.3
20260506200908 66 229 5.2 9.6 0.00 0.00 0.00 54 1008.2
20260506200408 67 232 4.3 9.6 0.00 0.00 0.00 54 1008.3
20260506195910 67 236 4.3 9.6 0.00 0.00 0.00 54 1008.1
20260506194908 67 233 3.5 7.8 0.00 0.00 0.00 53 1007.9
20260506192413 69 239 6.1 10.4 0.00 0.00 0.00 50 1012.7
20260506191913 69 240 6.1 10.4 0.00 0.00 0.00 50 1012.7
20260506190913 70 237 3.5 9.6 0.00 0.00 0.00 49 1012.7
20260506190413 70 246 5.2 9.6 0.00 0.00 0.00 48 1012.7
20260506185914 70 243 5.2 10.4 0.00 0.00 0.00 48 1012.7
20260506185413 70 235 5.2 10.4 0.00 0.00 0.00 48 1012.7
20260506184914 71 251 4.3 9.6 0.00 0.00 0.00 47 1012.7
20260506184413 71 247 6.1 11.3 0.00 0.00 0.00 47 1012.7
20260506183914 72 240 7.0 11.3 0.00 0.00 0.00 47 1012.7
20260506183413 72 253 5.2 10.4 0.00 0.00 0.00 46 1012.7
20260506182913 72 266 5.2 12.2 0.00 0.00 0.00 45 1012.7
20260506182415 73 266 4.3 12.2 0.00 0.00 0.00 43 1012.7
20260506181913 74 280 4.3 8.7 0.00 0.00 0.00 42 1012.7
20260506181414 74 308 4.3 10.4 0.00 0.00 0.00 41 1012.7
20260506180913 74 261 4.3 10.4 0.00 0.00 0.00 40 1012.7
20260506175915 75 257 5.2 12.2 0.00 0.00 0.00 39 1012.7
20260506175414 75 257 4.3 12.2 0.00 0.00 0.00 38 1012.7
20260506174913 75 256 5.2 9.6 0.00 0.00 0.00 38 1012.7
20260506174413 76 254 4.3 10.4 0.00 0.00 0.00 37 1012.7
20260506173913 76 245 4.3 10.4 0.00 0.00 0.00 38 1012.7
20260506172914 76 222 4.3 10.4 0.00 0.00 0.00 38 1012.7
20260506172413 76 225 4.3 9.6 0.00 0.00 0.00 37 1012.7
20260506171913 76 240 3.5 9.6 0.00 0.00 0.00 37 1012.7
20260506170914 76 229 5.2 11.3 0.00 0.00 0.00 38 1012.7
20260506165914 76 244 5.2 10.4 0.00 0.00 0.00 38 1012.7
20260506165413 76 262 4.3 10.4 0.00 0.00 0.00 37 1012.7
20260506164913 77 271 3.5 10.4 0.00 0.00 0.00 37 1012.7
20260506164413 77 240 4.3 11.3 0.00 0.00 0.00 37 1012.7
20260506163913 76 253 5.2 11.3 0.00 0.00 0.00 36 1012.7
20260506163413 77 256 5.2 10.4 0.00 0.00 0.00 36 1012.7
20260506162913 77 233 5.2 11.3 0.00 0.00 0.00 36 1012.7
20260506161914 77 242 6.1 13.0 0.00 0.00 0.00 36 1012.7
20260506160913 78 241 6.1 13.0 0.00 0.00 0.00 35 1012.7
20260506155414 78 178 1.7 5.2 0.00 0.00 0.00 34 1012.7
20260506154913 78 145 1.7 3.5 0.00 0.00 0.00 32 1012.7
20260506154413 77 189 2.6 5.2 0.00 0.00 0.00 33 1012.7
20260506153914 77 186 3.5 7.8 0.00 0.00 0.00 33 1012.7
20260506153414 78 161 3.5 8.7 0.00 0.00 0.00 32 1012.7
20260506152413 78 202 1.7 7.0 0.00 0.00 0.00 32 1012.7
20260506151912 77 297 1.7 3.5 0.00 0.00 0.00 31 1012.7
20260506151414 78 339 1.7 3.5 0.00 0.00 0.00 31 1012.7
20260506150914 77 6 1.7 2.6 0.00 0.00 0.00 29 1012.7
20260506150413 77 312 1.7 4.3 0.00 0.00 0.00 30 1012.7
20260506145913 77 266 2.6 7.8 0.00 0.00 0.00 30 1012.7
20260506145414 77 216 2.6 7.8 0.00 0.00 0.00 31 1012.7
20260506144913 77 174 1.7 6.1 0.00 0.00 0.00 31 1012.7
20260506144413 76 115 1.7 6.1 0.00 0.00 0.00 30 1012.7
20260506143912 76 80 1.7 4.3 0.00 0.00 0.00 30 1012.7
20260506143413 76 50 1.7 4.3 0.00 0.00 0.00 30 1012.7
20260506142914 76 199 2.6 4.3 0.00 0.00 0.00 31 1012.7
20260506142413 76 213 2.6 5.2 0.00 0.00 0.00 31 1012.7
20260506141913 76 204 1.7 5.2 0.00 0.00 0.00 31 1012.7
20260506141413 76 206 2.6 7.8 0.00 0.00 0.00 31 1012.7
20260506140414 76 243 1.7 4.3 0.00 0.00 0.00 32 1012.7
20260506135913 76 268 1.7 3.5 0.00 0.00 0.00 32 1012.7
20260506135413 75 318 1.7 5.2 0.00 0.00 0.00 32 1012.7
20260506134912 75 331 1.7 5.2 0.00 0.00 0.00 32 1012.7
20260506134413 75 329 2.6 6.1 0.00 0.00 0.00 32 1012.7
20260506132913 76 260 2.6 7.0 0.00 0.00 0.00 32 1012.7
20260506132413 76 270 2.6 7.0 0.00 0.00 0.00 33 1012.7
20260506131913 75 259 1.7 6.1 0.00 0.00 0.00 35 1012.7
20260506131413 74 303 2.6 7.0 0.00 0.00 0.00 35 1012.7
20260506130913 75 338 3.5 7.0 0.00 0.00 0.00 36 1012.7
20260506130413 74 2 3.5 7.0 0.00 0.00 0.00 37 1012.7
20260506125913 75 350 1.7 6.1 0.00 0.00 0.00 37 1012.7
20260506125413 75 239 0.9 3.5 0.00 0.00 0.00 37 1012.7
20260506124913 74 288 1.7 7.0 0.00 0.00 0.00 37 1012.7
20260506124413 74 305 3.5 7.0 0.00 0.00 0.00 37 1012.7
20260506123913 74 318 3.5 7.8 0.00 0.00 0.00 38 1012.7
20260506123413 74 320 3.5 7.8 0.00 0.00 0.00 38 1012.7
20260506122912 74 303 2.6 7.0 0.00 0.00 0.00 38 1012.7
20260506122413 73 260 1.7 3.5 0.00 0.00 0.00 39 1012.7
20260506121912 72 195 0.9 2.6 0.00 0.00 0.00 39 1012.7
20260506121413 73 138 0.9 3.5 0.00 0.00 0.00 38 1012.7
20260506120913 73 53 1.7 5.2 0.00 0.00 0.00 38 1012.7
20260506115913 73 321 2.6 6.1 0.00 0.00 0.00 39 1012.7
20260506115413 74 285 2.6 6.1 0.00 0.00 0.00 37 1012.7
20260506114912 73 267 2.6 4.3 0.00 0.00 0.00 38 1012.7
20260506114414 73 336 1.7 4.3 0.00 0.00 0.00 38 1012.7
20260506113913 74 308 0.9 4.3 0.00 0.00 0.00 37 1012.7
20260506113413 73 273 0.9 6.1 0.00 0.00 0.00 37 1012.7
20260506112914 72 252 1.7 6.1 0.00 0.00 0.00 40 1012.7
20260506112412 72 231 1.7 4.3 0.00 0.00 0.00 41 1012.7
20260506111914 72 205 0.9 3.5 0.00 0.00 0.00 42 1012.7
20260506111413 71 141 0.9 3.5 0.00 0.00 0.00 42 1012.7
20260506110913 71 140 1.7 3.5 0.00 0.00 0.00 42 1012.7
20260506110413 72 124 0.9 2.6 0.00 0.00 0.00 42 1012.7
20260506105914 72 90 0.9 2.6 0.00 0.00 0.00 45 1012.7
20260506105413 71 37 0.9 3.5 0.00 0.00 0.00 45 1012.7
20260506104914 71 22 0.9 3.5 0.00 0.00 0.00 47 1012.7
20260506104412 71 163 0.0 3.5 0.00 0.00 0.00 47 1012.7
20260506103913 70 192 0.9 1.7 0.00 0.00 0.00 48 1012.7
20260506103412 71 213 0.9 3.5 0.00 0.00 0.00 48 1012.7
20260506102913 70 215 0.9 3.5 0.00 0.00 0.00 49 1012.7
20260506102413 70 218 0.9 3.5 0.00 0.00 0.00 50 1012.7
20260506101912 69 184 1.7 3.5 0.00 0.00 0.00 51 1012.7
20260506101413 69 145 0.9 3.5 0.00 0.00 0.00 51 1012.7
20260506100913 69 95 0.9 1.7 0.00 0.00 0.00 51 1012.7
20260506100413 68 91 0.9 2.6 0.00 0.00 0.00 52 1012.7
20260506095912 67 58 0.9 3.5 0.00 0.00 0.00 51 1012.7
20260506095414 67 28 0.9 3.5 0.00 0.00 0.00 52 1012.7
20260506094912 67 25 0.9 3.5 0.00 0.00 0.00 51 1012.7
20260506094412 68 33 1.7 3.5 0.00 0.00 0.00 52 1012.7
20260506093913 67 36 1.7 5.2 0.00 0.00 0.00 52 1012.7
20260506093413 67 37 1.7 5.2 0.00 0.00 0.00 53 1012.7
20260506092414 66 350 0.9 3.5 0.00 0.00 0.00 54 1012.7
20260506091912 66 31 0.9 2.6 0.00 0.00 0.00 54 1012.7
20260506091413 66 45 0.9 3.5 0.00 0.00 0.00 55 1012.7
20260506090913 65 25 0.9 4.3 0.00 0.00 0.00 55 1012.7
20260506090413 65 35 0.9 4.3 0.00 0.00 0.00 55 1012.7
20260506085913 65 48 1.7 3.5 0.00 0.00 0.00 56 1012.7
20260506084912 65 1 1.7 4.3 0.00 0.00 0.00 56 1012.7
20260506083912 64 61 0.9 2.6 0.00 0.00 0.00 58 1012.7
20260506083413 64 35 1.7 2.6 0.00 0.00 0.00 59 1012.7
20260506082913 63 16 1.7 3.5 0.00 0.00 0.00 58 1012.7
20260506082412 63 22 1.7 3.5 0.00 0.00 0.00 58 1012.7
20260506081913 63 38 1.7 4.3 0.00 0.00 0.00 59 1012.7
20260506081412 63 44 1.7 4.3 0.00 0.00 0.00 59 1012.7
20260506080913 63 25 0.9 3.5 0.00 0.00 0.00 59 1012.7
20260506080412 63 3 1.7 5.2 0.00 0.00 0.00 60 1012.7
20260506073412 61 16 3.5 7.0 0.00 0.00 0.00 63 1012.7
20260506072912 61 25 3.5 7.0 0.00 0.00 0.00 63 1012.7
20260506072412 61 43 2.6 2.6 0.00 0.00 0.00 64 1012.7
20260506071413 60 29 2.6 6.1 0.00 0.00 0.00 64 1012.7
20260506070913 60 30 1.7 6.1 0.00 0.00 0.00 65 1012.7
20260506062413 59 32 3.5 7.0 0.00 0.00 0.00 67 1012.7
20260506061913 59 35 2.6 7.0 0.00 0.00 0.00 67 1012.7
20260506060912 58 43 2.6 5.2 0.00 0.00 0.00 68 1012.7
20260506060412 58 42 1.7 4.3 0.00 0.00 0.00 68 1012.7
20260506051412 58 62 1.7 3.5 0.00 0.00 0.00 68 1012.7
20260506050412 58 64 0.9 1.7 0.00 0.00 0.00 68 1012.7
20260506044912 59 38 0.9 2.6 0.00 0.00 0.00 66 1012.7